Time,TemperatureF,DewpointF,PressureIn,WindDirection,WindDirectionDegrees,WindSpeedMPH,WindSpeedGustMPH,Humidity,HourlyPrecipIn,Conditions,Clouds,dailyrainin,SolarRadiationWatts/m^2,SoftwareType,DateUTC
2013-05-24 00:02:00,55.0,44.0,-100.00,South,175,11.0,24.0,66,0.00,,,0.00,1.000000,,2013-05-24 06:02:00,
2013-05-24 00:12:00,55.0,44.0,-100.00,South,175,11.0,24.0,66,0.00,,,0.00,1.000000,,2013-05-24 06:12:00,
2013-05-24 00:21:00,55.0,44.0,-100.00,South,175,11.0,24.0,66,0.00,,,0.00,1.000000,,2013-05-24 06:21:00,
2013-05-24 00:32:00,55.0,44.0,-100.00,South,175,11.0,24.0,66,0.00,,,0.00,1.000000,,2013-05-24 06:32:00,
2013-05-24 00:52:00,54.0,44.0,-100.00,South,181,9.0,23.0,69,0.00,,,0.00,1.000000,,2013-05-24 06:52:00,
2013-05-24 01:01:00,54.0,44.0,-100.00,South,181,9.0,23.0,69,0.00,,,0.00,1.000000,,2013-05-24 07:01:00,
2013-05-24 01:11:00,54.0,44.0,-100.00,South,181,9.0,23.0,69,0.00,,,0.00,1.000000,,2013-05-24 07:11:00,
2013-05-24 01:22:00,54.0,44.0,-100.00,South,181,9.0,23.0,69,0.00,,,0.00,1.000000,,2013-05-24 07:22:00,
2013-05-24 01:32:00,54.0,44.0,-100.00,South,181,9.0,23.0,69,0.00,,,0.00,1.000000,,2013-05-24 07:32:00,
2013-05-24 02:02:00,53.0,44.0,-100.00,South,181,13.0,25.0,71,0.00,,,0.00,1.000000,,2013-05-24 08:02:00,
2013-05-24 02:11:00,53.0,44.0,-100.00,South,181,13.0,25.0,71,0.00,,,0.00,1.000000,,2013-05-24 08:11:00,
2013-05-24 02:22:00,53.0,44.0,-100.00,South,181,13.0,25.0,71,0.00,,,0.00,1.000000,,2013-05-24 08:22:00,
2013-05-24 02:32:00,53.0,44.0,-100.00,South,181,13.0,25.0,71,0.00,,,0.00,1.000000,,2013-05-24 08:32:00,
2013-05-24 02:52:00,53.0,45.0,-100.00,South,182,12.0,26.0,75,0.00,,,0.00,1.000000,,2013-05-24 08:52:00,
2013-05-24 03:02:00,53.0,45.0,-100.00,South,182,12.0,26.0,75,0.00,,,0.00,1.000000,,2013-05-24 09:02:00,
2013-05-24 03:11:00,53.0,45.0,-100.00,South,182,12.0,26.0,75,0.00,,,0.00,1.000000,,2013-05-24 09:11:00,
2013-05-24 03:21:00,53.0,45.0,-100.00,South,182,12.0,26.0,75,0.00,,,0.00,1.000000,,2013-05-24 09:21:00,
2013-05-24 03:32:00,53.0,45.0,-100.00,South,182,12.0,26.0,75,0.00,,,0.00,1.000000,,2013-05-24 09:32:00,
2013-05-24 03:53:00,53.0,47.0,-100.00,South,189,10.0,33.0,79,0.00,,,0.00,1.000000,,2013-05-24 09:53:00,
2013-05-24 04:03:00,53.0,47.0,-100.00,South,189,10.0,33.0,79,0.00,,,0.00,1.000000,,2013-05-24 10:03:00,
2013-05-24 04:12:00,53.0,47.0,-100.00,South,189,10.0,33.0,79,0.00,,,0.00,1.000000,,2013-05-24 10:12:00,
2013-05-24 04:22:00,53.0,47.0,-100.00,South,189,10.0,33.0,79,0.00,,,0.00,1.000000,,2013-05-24 10:22:00,
2013-05-24 04:32:00,53.0,47.0,-100.00,South,189,10.0,33.0,79,0.00,,,0.00,1.000000,,2013-05-24 10:32:00,
2013-05-24 04:53:00,53.0,48.0,-100.00,South,188,7.0,20.0,82,0.00,,,0.00,1.000000,,2013-05-24 10:53:00,
2013-05-24 05:02:00,53.0,48.0,-100.00,South,188,7.0,20.0,82,0.00,,,0.00,1.000000,,2013-05-24 11:02:00,
2013-05-24 05:12:00,53.0,48.0,-100.00,South,188,7.0,20.0,82,0.00,,,0.00,1.000000,,2013-05-24 11:12:00,
2013-05-24 05:22:00,53.0,48.0,-100.00,South,188,7.0,20.0,82,0.00,,,0.00,1.000000,,2013-05-24 11:22:00,
2013-05-24 05:32:00,53.0,48.0,-100.00,South,188,7.0,20.0,82,0.00,,,0.00,1.000000,,2013-05-24 11:32:00,
2013-05-24 05:52:00,53.0,48.0,-100.00,SSW,197,10.0,31.0,83,0.00,,,0.00,3.000000,,2013-05-24 11:52:00,
2013-05-24 06:02:00,53.0,48.0,-100.00,SSW,197,10.0,31.0,83,0.00,,,0.00,3.000000,,2013-05-24 12:02:00,
2013-05-24 06:11:00,53.0,48.0,-100.00,SSW,197,10.0,31.0,83,0.00,,,0.00,3.000000,,2013-05-24 12:11:00,
2013-05-24 06:21:00,53.0,48.0,-100.00,SSW,197,10.0,31.0,83,0.00,,,0.00,3.000000,,2013-05-24 12:21:00,
2013-05-24 06:32:00,53.0,48.0,-100.00,SSW,197,10.0,31.0,83,0.00,,,0.00,3.000000,,2013-05-24 12:32:00,
2013-05-24 07:02:00,56.0,49.0,-100.00,SSW,201,8.0,24.0,78,0.00,,,0.00,54.000000,,2013-05-24 13:02:00,
2013-05-24 07:11:00,56.0,49.0,-100.00,SSW,201,8.0,24.0,78,0.00,,,0.00,54.000000,,2013-05-24 13:11:00,
2013-05-24 07:21:00,56.0,49.0,-100.00,SSW,201,8.0,24.0,78,0.00,,,0.00,54.000000,,2013-05-24 13:21:00,
2013-05-24 07:32:00,56.0,49.0,-100.00,SSW,201,8.0,24.0,78,0.00,,,0.00,54.000000,,2013-05-24 13:32:00,
2013-05-24 07:52:00,61.0,50.0,-100.00,SSW,208,5.0,22.0,66,0.00,,,0.00,238.000000,,2013-05-24 13:52:00,
2013-05-24 08:01:00,61.0,50.0,-100.00,SSW,208,5.0,22.0,66,0.00,,,0.00,238.000000,,2013-05-24 14:01:00,
2013-05-24 08:11:00,61.0,50.0,-100.00,SSW,208,5.0,22.0,66,0.00,,,0.00,238.000000,,2013-05-24 14:11:00,
2013-05-24 08:21:00,61.0,50.0,-100.00,SSW,208,5.0,22.0,66,0.00,,,0.00,238.000000,,2013-05-24 14:21:00,
2013-05-24 08:32:00,61.0,50.0,-100.00,SSW,208,5.0,22.0,66,0.00,,,0.00,238.000000,,2013-05-24 14:32:00,
2013-05-24 08:52:00,63.0,48.0,-100.00,SW,226,9.0,27.0,59,0.00,,,0.00,420.000000,,2013-05-24 14:52:00,
2013-05-24 09:02:00,63.0,48.0,-100.00,SW,226,9.0,27.0,59,0.00,,,0.00,420.000000,,2013-05-24 15:02:00,
2013-05-24 09:11:00,63.0,48.0,-100.00,SW,226,9.0,27.0,59,0.00,,,0.00,420.000000,,2013-05-24 15:11:00,
2013-05-24 09:21:00,63.0,48.0,-100.00,SW,226,9.0,27.0,59,0.00,,,0.00,420.000000,,2013-05-24 15:21:00,
2013-05-24 09:32:00,63.0,48.0,-100.00,SW,226,9.0,27.0,59,0.00,,,0.00,420.000000,,2013-05-24 15:32:00,
2013-05-24 10:03:00,67.0,49.0,-100.00,SW,228,10.0,20.0,52,0.00,,,0.00,610.000000,,2013-05-24 16:03:00,
2013-05-24 10:12:00,67.0,49.0,-100.00,SW,228,10.0,20.0,52,0.00,,,0.00,610.000000,,2013-05-24 16:12:00,
2013-05-24 10:22:00,67.0,49.0,-100.00,SW,228,10.0,20.0,52,0.00,,,0.00,610.000000,,2013-05-24 16:22:00,
2013-05-24 10:32:00,67.0,49.0,-100.00,SW,228,10.0,20.0,52,0.00,,,0.00,610.000000,,2013-05-24 16:32:00,
2013-05-24 10:52:00,71.0,47.0,-100.00,WSW,237,9.0,19.0,42,0.00,,,0.00,613.000000,,2013-05-24 16:52:00,
2013-05-24 11:02:00,71.0,47.0,-100.00,WSW,237,9.0,19.0,42,0.00,,,0.00,613.000000,,2013-05-24 17:02:00,
2013-05-24 11:12:00,71.0,47.0,-100.00,WSW,237,9.0,19.0,42,0.00,,,0.00,613.000000,,2013-05-24 17:12:00,
2013-05-24 11:22:00,71.0,47.0,-100.00,WSW,237,9.0,19.0,42,0.00,,,0.00,613.000000,,2013-05-24 17:22:00,
2013-05-24 11:32:00,71.0,47.0,-100.00,WSW,237,9.0,19.0,42,0.00,,,0.00,613.000000,,2013-05-24 17:32:00,
2013-05-24 11:52:00,76.0,41.0,-100.00,SW,233,5.0,17.0,29,0.00,,,0.00,750.000000,,2013-05-24 17:52:00,
2013-05-24 12:01:00,76.0,41.0,-100.00,SW,233,5.0,17.0,29,0.00,,,0.00,750.000000,,2013-05-24 18:01:00,
2013-05-24 12:12:00,76.0,41.0,-100.00,SW,233,5.0,17.0,29,0.00,,,0.00,750.000000,,2013-05-24 18:12:00,
2013-05-24 12:21:00,76.0,41.0,-100.00,SW,233,5.0,17.0,29,0.00,,,0.00,750.000000,,2013-05-24 18:21:00,
2013-05-24 12:32:00,76.0,41.0,-100.00,SW,233,5.0,17.0,29,0.00,,,0.00,750.000000,,2013-05-24 18:32:00,
2013-05-24 13:01:00,80.0,35.0,-100.00,WNW,289,4.0,20.0,20,0.00,,,0.00,938.000000,,2013-05-24 19:01:00,
2013-05-24 13:11:00,80.0,35.0,-100.00,WNW,289,4.0,20.0,20,0.00,,,0.00,938.000000,,2013-05-24 19:11:00,
2013-05-24 13:21:00,80.0,35.0,-100.00,WNW,289,4.0,20.0,20,0.00,,,0.00,938.000000,,2013-05-24 19:21:00,
2013-05-24 13:32:00,80.0,35.0,-100.00,WNW,289,4.0,20.0,20,0.00,,,0.00,938.000000,,2013-05-24 19:32:00,
2013-05-24 14:02:00,71.0,51.0,-100.00,NNE,33,7.0,15.0,49,0.00,,,0.00,768.000000,,2013-05-24 20:02:00,
2013-05-24 14:11:00,71.0,51.0,-100.00,NNE,33,7.0,15.0,49,0.00,,,0.00,768.000000,,2013-05-24 20:11:00,
2013-05-24 14:21:00,71.0,51.0,-100.00,NNE,33,7.0,15.0,49,0.00,,,0.00,768.000000,,2013-05-24 20:21:00,
2013-05-24 14:32:00,71.0,51.0,-100.00,NNE,33,7.0,15.0,49,0.00,,,0.00,768.000000,,2013-05-24 20:32:00,
2013-05-24 14:52:00,70.0,53.0,-100.00,NE,45,7.0,17.0,54,0.00,,,0.00,720.000000,,2013-05-24 20:52:00,
2013-05-24 15:01:00,70.0,53.0,-100.00,NE,45,7.0,17.0,54,0.00,,,0.00,720.000000,,2013-05-24 21:01:00,
2013-05-24 15:11:00,70.0,53.0,-100.00,NE,45,7.0,17.0,54,0.00,,,0.00,720.000000,,2013-05-24 21:11:00,
2013-05-24 15:21:00,70.0,53.0,-100.00,NE,45,7.0,17.0,54,0.00,,,0.00,720.000000,,2013-05-24 21:21:00,
2013-05-24 15:32:00,70.0,53.0,-100.00,NE,45,7.0,17.0,54,0.00,,,0.00,720.000000,,2013-05-24 21:32:00,
2013-05-24 15:53:00,71.0,53.0,-100.00,North,8,7.0,17.0,53,0.00,,,0.00,816.000000,,2013-05-24 21:53:00,
2013-05-24 16:02:00,71.0,53.0,-100.00,North,8,7.0,17.0,53,0.00,,,0.00,816.000000,,2013-05-24 22:02:00,
2013-05-24 16:12:00,71.0,53.0,-100.00,North,8,7.0,17.0,53,0.00,,,0.00,816.000000,,2013-05-24 22:12:00,
2013-05-24 16:22:00,71.0,53.0,-100.00,North,8,7.0,17.0,53,0.00,,,0.00,816.000000,,2013-05-24 22:22:00,
2013-05-24 16:33:00,71.0,53.0,-100.00,North,8,7.0,17.0,53,0.00,,,0.00,816.000000,,2013-05-24 22:33:00,
2013-05-24 17:02:00,70.0,53.0,-100.00,NNE,27,8.0,14.0,54,0.00,,,0.00,617.000000,,2013-05-24 23:02:00,
2013-05-24 17:11:00,70.0,53.0,-100.00,NNE,27,8.0,14.0,54,0.00,,,0.00,617.000000,,2013-05-24 23:11:00,
2013-05-24 17:22:00,70.0,53.0,-100.00,NNE,27,8.0,14.0,54,0.00,,,0.00,617.000000,,2013-05-24 23:22:00,
2013-05-24 17:32:00,70.0,53.0,-100.00,NNE,27,8.0,14.0,54,0.00,,,0.00,617.000000,,2013-05-24 23:32:00,
2013-05-24 17:52:00,70.0,52.0,-100.00,NNE,26,6.0,15.0,52,0.00,,,0.00,485.000000,,2013-05-24 23:52:00,
2013-05-24 18:01:00,70.0,52.0,-100.00,NNE,26,6.0,15.0,52,0.00,,,0.00,485.000000,,2013-05-25 00:01:00,
2013-05-24 18:11:00,70.0,52.0,-100.00,NNE,26,6.0,15.0,52,0.00,,,0.00,485.000000,,2013-05-25 00:11:00,
2013-05-24 18:21:00,70.0,52.0,-100.00,NNE,26,6.0,15.0,52,0.00,,,0.00,485.000000,,2013-05-25 00:21:00,
2013-05-24 18:32:00,70.0,52.0,-100.00,NNE,26,6.0,15.0,52,0.00,,,0.00,485.000000,,2013-05-25 00:32:00,
2013-05-24 19:01:00,66.0,51.0,-100.00,North,8,6.0,16.0,58,0.00,,,0.00,221.000000,,2013-05-25 01:01:00,
2013-05-24 19:11:00,66.0,51.0,-100.00,North,8,6.0,16.0,58,0.00,,,0.00,221.000000,,2013-05-25 01:11:00,
2013-05-24 19:22:00,66.0,51.0,-100.00,North,8,6.0,16.0,58,0.00,,,0.00,221.000000,,2013-05-25 01:22:00,
2013-05-24 19:32:00,66.0,51.0,-100.00,North,8,6.0,16.0,58,0.00,,,0.00,221.000000,,2013-05-25 01:32:00,
2013-05-24 19:52:00,64.0,50.0,-100.00,NNE,32,4.0,11.0,61,0.00,,,0.00,158.000000,,2013-05-25 01:52:00,
2013-05-24 20:02:00,64.0,50.0,-100.00,NNE,32,4.0,11.0,61,0.00,,,0.00,158.000000,,2013-05-25 02:02:00,
2013-05-24 20:12:00,64.0,50.0,-100.00,NNE,32,4.0,11.0,61,0.00,,,0.00,158.000000,,2013-05-25 02:12:00,
2013-05-24 20:21:00,64.0,50.0,-100.00,NNE,32,4.0,11.0,61,0.00,,,0.00,158.000000,,2013-05-25 02:21:00,
2013-05-24 20:31:00,64.0,50.0,-100.00,NNE,32,4.0,11.0,61,0.00,,,0.00,158.000000,,2013-05-25 02:31:00,
2013-05-24 20:52:00,59.0,50.0,-100.00,NNW,344,2.0,9.0,71,0.00,,,0.00,16.000000,,2013-05-25 02:52:00,
2013-05-24 21:02:00,59.0,50.0,-100.00,NNW,344,2.0,9.0,71,0.00,,,0.00,16.000000,,2013-05-25 03:02:00,
2013-05-24 21:11:00,59.0,50.0,-100.00,NNW,344,2.0,9.0,71,0.00,,,0.00,16.000000,,2013-05-25 03:11:00,
2013-05-24 21:21:00,59.0,50.0,-100.00,NNW,344,2.0,9.0,71,0.00,,,0.00,16.000000,,2013-05-25 03:21:00,
2013-05-24 21:32:00,59.0,50.0,-100.00,NNW,344,2.0,9.0,71,0.00,,,0.00,16.000000,,2013-05-25 03:32:00,
2013-05-24 22:02:00,57.0,48.0,-100.00,NNW,333,2.0,5.0,73,0.00,,,0.00,1.000000,,2013-05-25 04:02:00,
2013-05-24 22:13:00,57.0,48.0,-100.00,NNW,333,2.0,5.0,73,0.00,,,0.00,1.000000,,2013-05-25 04:13:00,
2013-05-24 22:23:00,57.0,48.0,-100.00,NNW,333,2.0,5.0,73,0.00,,,0.00,1.000000,,2013-05-25 04:23:00,
2013-05-24 22:33:00,57.0,48.0,-100.00,NNW,333,2.0,5.0,73,0.00,,,0.00,1.000000,,2013-05-25 04:33:00,
2013-05-24 22:53:00,56.0,48.0,-100.00,WNW,284,3.0,6.0,75,0.00,,,0.00,1.000000,,2013-05-25 04:53:00,
2013-05-24 23:02:00,56.0,48.0,-100.00,WNW,284,3.0,6.0,75,0.00,,,0.00,1.000000,,2013-05-25 05:02:00,
2013-05-24 23:12:00,56.0,48.0,-100.00,WNW,284,3.0,6.0,75,0.00,,,0.00,1.000000,,2013-05-25 05:12:00,
2013-05-24 23:22:00,56.0,48.0,-100.00,WNW,284,3.0,6.0,75,0.00,,,0.00,1.000000,,2013-05-25 05:22:00,
2013-05-24 23:32:00,56.0,48.0,-100.00,WNW,284,3.0,6.0,75,0.00,,,0.00,1.000000,,2013-05-25 05:32:00,
2013-05-24 23:52:00,52.0,48.0,-100.00,West,281,4.0,7.0,86,0.00,,,0.00,0.000000,,2013-05-25 05:52:00,